Location: Unspecified
(64.9000°N, 0.0000°E)
Time: 05:48:25
(UTC+00:00)

Altair - Pass Details

Date: 23 June 2019
Orbit: 1501 x 1683 km, 47.2° (Epoch: 12 October)

Event Time Altitude Azimuth Distance (km) Brightness Sun altitude
Rises 20:08:04 0° 214° (SSW) 4,730 10.0 9.0°
Reaches altitude 10° 20:11:59 10° 200° (SSW) 3,778 9.4 8.7°
Maximum altitude 20:18:43 22° 154° (SSE) 2,986 8.6 8.1°
Drops below altitude 10° 20:25:37 10° 110° (ESE) 3,884 9.1 7.6°
Sets 20:29:42 0° 96° (E) 4,898 9.6 7.3°
